Location: Unspecified
(0.0000°N, 0.0000°E)
Time: 15:06:01
(UTC+00:00)

Transit 4A - All Passes

Search period start: 21 February 2019 00:00
Search period end: 03 March 2019 00:00
Orbit: 865 x 979 km, 66.8° (Epoch: 20 February)

Date Brightness Start Highest point End Pass type
(mag) Time Alt. Az. Time Alt. Az. Time Alt. Az.
21 Feb - 10:07:09 10° SSW 10:12:54 73° ESE 10:18:42 10° NNE daylight
21 Feb - 21:19:12 10° NNE 21:24:36 29° ENE 21:29:58 10° SE night (unlit)
21 Feb - 23:05:33 10° NW 23:10:41 26° WSW 23:15:50 10° SSW night (unlit)
22 Feb - 10:16:28 10° SSW 10:22:11 65° WNW 10:27:57 10° N daylight
22 Feb - 21:27:48 10° N 21:33:55 48° ENE 21:40:00 10° SE night (unlit)
22 Feb - 23:16:37 10° WNW 23:20:01 15° WSW 23:23:26 10° SW night (unlit)
23 Feb - 08:41:57 10° SSE 08:45:25 16° ESE 08:48:54 10° ENE daylight
23 Feb - 10:26:13 10° SW 10:31:29 36° WNW 10:36:47 10° N daylight
23 Feb - 21:36:49 10° NNW 21:43:13 82° ENE 21:49:34 10° SSE night (unlit)
24 Feb - 08:49:49 10° SSE 08:54:44 29° ESE 08:59:40 10° NE daylight
24 Feb - 10:36:33 10° WSW 10:40:47 21° WNW 10:45:03 10° NNW daylight
24 Feb - 20:04:23 10° NE 20:06:21 11° ENE 20:08:18 10° E night (unlit)
24 Feb - 21:46:14 10° NNW 21:52:31 61° WSW 21:58:46 10° S night (unlit)
25 Feb - 08:58:27 10° S 09:04:01 50° ESE 09:09:39 10° NE daylight
25 Feb - 10:48:24 10° W 10:50:08 11° WNW 10:51:53 10° NW daylight
25 Feb - 20:11:07 10° NNE 20:15:43 21° ENE 20:20:17 10° ESE night (unlit)
25 Feb - 21:56:04 10° NW 22:01:49 36° WSW 22:07:33 10° S night (unlit)
26 Feb - 09:07:31 10° SSW 09:13:19 89° ESE 09:19:09 10° NNE daylight
26 Feb - 20:19:19 10° N 20:25:03 35° ENE 20:30:44 10° SE visible
26 Feb - 22:06:29 10° WNW 22:11:08 21° WSW 22:15:46 10° SSW night (unlit)
27 Feb - 07:35:12 10° SE 07:36:31 11° ESE 07:37:50 10° E daylight
27 Feb - 09:16:59 10° SW 09:22:35 52° WNW 09:28:15 10° N daylight
27 Feb - 20:28:05 10° N 20:34:22 59° ENE 20:40:34 10° SSE visible
27 Feb - 22:18:19 10° W 22:20:29 12° WSW 22:22:39 10° SW night (unlit)
28 Feb - 07:41:42 10° SSE 07:45:51 20° ESE 07:49:59 10° ENE daylight
28 Feb - 09:26:55 10° SW 09:31:54 30° WNW 09:36:55 10° N daylight
28 Feb - 20:37:15 10° NNW 20:43:39 84° WSW 20:50:00 10° SSE visible
01 Mar - 07:49:56 10° S 07:55:09 35° ESE 08:00:24 10° NE daylight
01 Mar - 09:37:35 10° WSW 09:41:13 17° WNW 09:44:53 10° NNW daylight
01 Mar - 19:03:32 10° NE 19:06:49 14° ENE 19:10:05 10° E visible
01 Mar - 20:46:49 10° NW 20:52:57 50° WSW 20:59:03 10° S visible
02 Mar - 07:58:43 10° S 08:04:26 62° ESE 08:10:11 10° NNE daylight
02 Mar - 19:11:04 10° NNE 19:16:10 25° ENE 19:21:13 10° ESE visible
02 Mar - 20:56:50 10° NW 21:02:15 30° WSW 21:07:40 10° SSW visible
